Location: Unspecified
(52.0000°N, 4.4000°E)
Time: 20:41:36
(UTC+00:00)

Cosmos 2341 Rocket - Pass Details

Date: 14 May 2025
Orbit: 966 x 1004 km, 82.9° (Epoch: 20 June)

Event Time Altitude Azimuth Distance (km) Brightness Sun altitude
Rises 21:00:12 0° 351° (N) 3,709 8.2 -11.2°
Reaches altitude 10° 21:02:49 10° 356° (N) 2,751 7.3 -11.4°
Maximum altitude 21:09:00 56° 74° (ENE) 1,155 4.3 -12.0°
Enters shadow 21:13:51 17° 149° (SSE) 2,270 5.3 -12.4°
